Tracking 27111 objects as of 29-Mar-2023
HD Live streaming from Space Station
objects crossing your sky now

NORSAT 3

Track NORSAT 3 now!
10-day predictions


NORAD ID: 48272
Int'l Code: 2021-034E
Perigee: 607.0 km
Apogee: 608.3 km
Inclination: 97.7 °
Period: 96.7 minutes
Semi major axis: 6978 km
RCS: Unknown
Launch date: April 29, 2021
Source: Norway (NOR)
Launch site: FRENCH GUIANA (FRGUI)
Your satellite tracking list
Your tracking list is empty




NASA's NSSDC Master Catalog

Two Line Element Set (TLE):
1 48272U 21034E   23087.91106994  .00007134  00000-0  76052-3 0  9990
2 48272  97.7120 157.4069 0000940  58.1435 301.9838 14.89162824103867
Source of the keplerian elements: AFSPC